Location: Fort Worth, Tx
(32.7431°N, 97.3695°W)
Time: 06:04:54
(UTC-05:00)

Altair - Pass Details

Date: 12 October 2023
Orbit: 1501 x 1682 km, 47.2° (Epoch: 06 December)

Event Time Altitude Azimuth Distance (km) Brightness Sun altitude
Rises 08:01:35 0° 306° (NW) 4,857 - -7.0°
Exits shadow 08:01:43 - 306° (NW) 4,816 9.6 -7.0°
Reaches altitude 10° 08:04:41 10° 306° (NW) 3,888 9.1 -6.4°
Maximum altitude 08:14:42 80° 221° (SW) 1,696 7.7 -4.3°
Drops below altitude 10° 08:24:51 10° 136° (SE) 3,934 10.6 -2.2°
Sets 08:28:01 0° 135° (SE) 4,916 11.1 -1.5°
